SCP
0 0 -0 -0 -0 -0 0 -0 -0 0 0 0 0 0 0 0 0 0 0 0 0 0 0 0 0 0 0 0 0 0 0 0 0 0 0 0 0 -0 0 0 0 0 0 0 0
-0 -0 -0 -0 -0 -0 -0 -0 -0 0 0 0 0 0 0 0 0 -0 0 0 0 0 0 0 0 0 0 0 0 0 0 0 0 0 0 0 0 -0 0 0 0 0 0 0 0
-0 -0 -0 -0 -0 -0 -0 -0 -0 0 0 0 0 0 0 0 0 0 0 0 -0 0 0 0 0 0 0 0 0 0 0 0 0 0 0 0 0 0 0 0 0 0 0 0 0
-0 -0 -0 -0 -0 -0 -0 -0 -0 -0 0 0 0 0 0 0 0 0 0 0 0 0 0 0 0 0 0 0 0 0 0 0 0 0 0 0 0 0 0 0 0 0 0 0 0
-0 -0 -0 -0 -0 -0 -0 -0 -0 0 0 0 0 0 0 0 0 0 0 0 0 0 0 0 0 0 0 0 0 0 0 0 0 0 0 0 0 0 0 0 0 0 0 0 0
0 0 -0 -0 -0 -0 -0 -0 -0 -0 0 0 0 0 0 0 0 0 0 0 0 0 0 0 0 0 0 0 0 0 0 0 0 0 0 0 0 0 0 0 0 0 0 0 0
0 0 -0 -0 -0 -0 -0 -0 -0 -0 -0 -0 -0 0 0 0 0 0 0 0 0 0 0 -0 0 0 0 0 0 0 0 0 0 0 0 0 0 0 0 0 0 0 0 0 0
-0 0 0 -0 -0 -0 -0 -0 -0 0 -0 0 0 0 0 0 0 0 -0 0 0 0 0 0 0 0 0 0 0 0 0 0 0 0 0 0 0 0 0 0 0 0 0 0 0
-0 0 0 0 -0 -0 -0 0 -0 0 0 0 0 0 0 0 0 -0 -0 0 0 0 0 0 0 0 0 0 0 0 0 0 0 0 0 0 0 0 0 0 0 0 0 0 0
-0 -0 -0 0 -0 -0 -0 -0 0 0 0 0 0 0 0 0 0 0 -0 0 0 0 0 0 0 0 0 0 0 0 0 0 0 0 0 0 0 0 0 0 0 0 0 0 0
-0 -0 0 0 0 0 0 0 0 0 0 0 0 0 0 0 0 0 0 0 0 0 0 0 0 0 0 0 0 0 0 0 0 0 0 0 0 0 0 0 0 0 0 0 0
-0 0 0 0 0 -0 0 0 0 0 0 0 0 0 0 0 0 0 0 0 0 0 0 0 0 0 0 0 0 0 0 0 0 0 0 -0 0 0 0 0 0 0 0 0 0
0 0 0 0 -0 0 0 0 0 0 0 0 0 0 -0 0 0 -0 0 0 0 0 0 0 0 0 0 0 0 0 0 0 0 0 -0 0 0 0 0 0 0 0 0 0 0
0 0 0 -0 0 0 0 0 0 0 0 0 0 0 0 0 0 0 0 0 0 0 0 0 0 0 0 0 0 0 0 0 0 0 0 0 0 0 0 0 0 0 0 0 0
0 0 0 -0 0 0 0 0 -0 0 0 0 0 0 0 0 0 0 0 0 0 0 0 0 0 0 0 0 0 0 0 0 0 0 0 0 0 0 0 0 0 0 0 0 0
0 0 -0 -0 0 0 0 0 0 0 0 0 0 0 0 -0 0 0 0 0 0 0 0 0 0 0 0 0 0 0 0 0 0 0 0 0 0 0 0 0 0 0 0 0 0
-0 -0 0 0 0 0 0 0 0 0 0 0 0 0 0 -0 -0 -0 0 0 0 0 0 0 0 0 0 0 0 0 0 0 0 0 0 0 0 0 0 -0 0 0 0 0 0
-0 -0 0 0 0 0 0 0 0 0 0 -0 0 -0 0 -0 -0 -0 0 0 0 0 0 0 0 0 0 0 0 0 0 0 0 0 0 0 0 0 0 0 0 0 0 0 0
0 0 0 -0 0 0 0 0 0 0 0 0 0 0 0 0 0 0 0 0 0 0 0 0 0 0 0 0 0 0 0 0 0 0 0 0 0 0 0 0 0 0 0 0 0
0 0 0 0 0 0 0 0 0 0 0 0 0 0 0 0 0 0 0 0 0 0 0 0 0 0 0 0 0 0 0 0 0 0 0 0 0 0 0 0 0 0 0 0 0
0 0 0 0 0 0 0 0 0 0 0 0 0 0 0 0 0 0 0 0 0 0 0 0 0 0 0 0 0 0 0 0 0 0 0 0 0 0 0 0 0 0 0 0 0
0 0 0 0 0 0 0 0 0 0 0 0 0 0 0 0 0 0 0 0 0 0 0 0 0 0 0 0 0 0 0 0 0 0 0 0 0 0 0 0 0 0 -0 0 0
0 0 0 0 0 0 0 0 0 0 0 0 0 0 0 0 0 0 0 0 0 0 0 0 0 0 0 0 0 0 0 0 0 0 0 0 0 0 0 0 0 0 0 0 0
0 0 0 0 0 0 0 0 0 0 0 0 0 0 0 0 0 0 0 0 0 0 0 0 0 0 0 0 0 0 0 0 0 0 0 0 0 0 0 0 0 0 0 0 0
0 0 0 0 0 0 0 0 0 0 0 0 0 0 0 0 0 0 0 0 0 0 0 0 0 0 0 0 0 0 0 0 0 0 0 0 0 0 0 0 0 0 0 0 0
0 0 0 0 0 0 0 0 0 0 0 0 0 0 0 0 0 0 0 0 0 0 0 0 0 0 0 0 0 0 0 0 0 0 0 0 0 0 0 0 0 0 0 0 0
0 0 0 0 0 0 0 0 0 0 0 0 0 0 0 0 0 0 0 0 0 0 0 0 0 0 0 0 0 0 0 0 0 0 0 0 0 0 0 0 0 0 0 0 0
Wind_Speed_500mb
37 41 42 42 39 28 22 15 13 11 10 10 12 13 17 18 24 35 55 52 46 24 22 17 19 20 22 21 26 10 5 8 11 14 12 23 10 32 28 9 17 21 51 41 33
33 36 39 41 41 36 26 21 15 12 11 10 11 13 15 17 26 45 37 35 39 45 43 30 22 23 15 18 14 10 9 16 12 3 5 35 14 24 16 22 14 51 42 32 27
33 32 34 38 40 38 31 24 19 13 10 9 10 11 12 13 19 14 8 30 39 44 31 35 26 11 27 18 15 14 13 9 18 28 23 24 35 16 8 3 9 10 11 15 28
37 34 33 32 36 37 35 27 19 15 9 7 8 8 11 11 8 8 4 9 41 52 35 32 26 11 9 13 28 5 21 30 42 50 41 14 28 6 11 20 12 14 19 5 9
39 37 36 35 33 36 36 33 23 12 10 7 6 7 10 10 19 1 4 13 38 43 41 36 32 19 10 15 24 11 17 40 58 60 48 48 31 22 19 23 23 15 21 25 18
29 37 38 38 37 35 37 38 35 12 8 8 5 7 10 7 12 9 4 16 31 40 38 40 25 23 14 19 16 18 37 45 55 61 46 17 21 21 18 25 38 37 29 28 31
32 32 37 39 41 40 37 38 36 15 11 9 9 11 19 27 14 9 6 11 20 29 37 45 25 17 3 12 19 35 10 16 27 41 19 22 13 13 43 36 41 43 41 39 38
38 36 37 39 42 44 41 35 32 14 14 12 13 14 19 9 22 23 17 15 17 24 32 20 15 34 25 14 14 5 6 5 12 12 22 18 23 16 41 47 48 52 51 48 42
44 44 43 44 43 45 45 38 28 18 16 15 11 11 21 22 33 36 26 21 25 21 20 14 21 7 7 7 10 10 5 10 15 13 6 13 19 25 61 45 43 49 59 60 44
47 48 50 47 49 45 45 38 24 20 15 11 13 11 24 19 35 37 38 30 28 24 33 22 3 5 7 8 10 10 6 11 13 9 8 21 32 37 51 47 53 60 57 48 51
48 50 49 48 48 54 45 26 10 8 25 25 16 21 4 10 14 33 38 40 43 37 11 6 6 12 20 15 13 11 10 17 19 22 8 13 12 25 35 20 28 27 35 47 43
46 46 49 49 49 53 41 20 18 8 18 37 45 48 43 26 9 27 42 27 16 9 9 1 16 19 18 14 15 18 20 22 17 21 14 6 11 12 8 15 33 31 43 50 55
47 46 49 52 52 31 20 24 24 28 9 19 45 49 38 19 14 32 46 41 8 12 12 15 17 21 22 23 19 19 18 12 14 13 5 3 12 8 11 13 26 34 43 49 62
50 46 46 55 20 10 13 30 21 10 5 10 18 16 23 19 10 28 49 43 9 19 12 12 25 23 13 16 17 27 13 14 9 4 11 8 12 9 14 15 12 39 47 56 61
54 47 45 44 34 16 13 20 5 13 2 11 15 12 24 29 7 19 33 27 18 12 13 15 3 5 5 8 2 12 10 8 5 7 3 12 5 14 5 14 18 20 54 59 72
52 44 48 27 24 5 6 11 19 5 10 11 14 13 15 15 4 11 25 20 10 7 3 12 15 7 11 7 6 13 4 9 8 7 1 11 9 9 8 12 16 26 50 44 55
54 48 30 21 8 2 8 7 8 3 10 11 10 13 17 14 12 12 14 12 10 9 9 7 16 10 14 11 4 7 10 6 7 6 10 10 9 14 18 10 6 15 25 4 34
52 35 18 13 17 5 7 8 6 10 11 15 14 24 15 12 9 23 17 10 10 8 5 6 8 4 6 11 14 13 15 10 10 7 8 8 8 9 5 11 17 30 35 43 50
51 27 23 13 32 14 6 3 8 7 8 9 2 13 15 15 10 11 18 22 15 19 13 7 10 5 3 13 2 6 5 11 7 3 4 8 12 8 13 20 19 27 35 30 32
51 32 17 21 34 23 7 8 9 10 6 9 6 12 12 3 9 10 13 5 8 9 9 5 3 3 8 10 5 9 4 2 6 3 8 8 9 9 7 13 20 21 25 28 9
34 19 7 25 36 12 6 9 14 19 2 5 2 6 11 6 8 5 11 10 8 7 14 4 7 8 7 2 2 10 6 7 5 9 8 4 10 9 10 9 12 11 11 14 15
13 5 26 37 8 7 6 5 9 31 17 2 5 10 8 8 7 6 10 3 8 3 6 2 7 3 8 12 3 5 2 7 8 7 4 7 11 14 9 2 6 7 8 10 23
34 14 26 39 3 5 4 6 4 8 9 5 9 10 5 5 8 8 11 4 12 8 8 1 4 5 15 7 11 11 5 5 7 4 11 6 6 3 14 19 23 12 33 31 27
13 6 6 35 11 4 3 6 1 13 12 11 7 10 8 6 8 5 8 4 10 11 14 13 5 11 11 3 2 6 13 7 7 6 5 20 16 22 29 30 23 46 52 45 47
7 5 9 5 4 14 6 6 4 8 7 11 12 15 8 6 4 7 10 10 16 14 10 8 8 2 5 9 7 11 21 24 20 14 17 15 30 16 19 23 43 47 36 15 32
8 7 16 8 21 14 5 3 3 8 5 7 12 11 16 10 6 5 5 3 4 2 6 8 6 5 5 13 16 19 27 29 32 30 30 32 41 25 24 9 30 35 39 37 35
10 8 8 9 7 4 9 5 7 10 19 23 13 12 16 6 9 9 5 7 8 10 5 7 9 5 7 6 12 17 14 13 15 21 17 28 7 7 14 14 18 32 31 30 32
Wind_Direction_500mb
0 3 6 12 12 5 357 350 330 314 296 278 260 253 253 247 243 243 237 233 228 197 185 179 193 197 209 216 210 172 83 233 236 177 270 338 334 315 336 251 124 138 145 142 147
352 356 358 1 8 13 4 358 355 339 318 293 273 260 255 257 258 252 249 235 226 209 214 204 197 181 183 205 199 158 163 227 217 222 313 312 338 320 355 9 71 124 133 141 153
342 348 354 354 357 3 12 359 353 351 335 298 275 266 265 272 286 261 203 218 207 194 193 210 197 175 213 209 203 194 202 226 266 266 270 274 295 276 325 19 36 19 115 141 194
338 340 343 349 349 351 356 4 347 337 331 301 286 281 264 254 213 146 6 209 195 195 195 196 206 193 192 200 217 236 238 240 263 267 271 260 276 244 226 264 269 282 294 274 117
331 335 337 340 342 343 343 344 342 318 312 303 284 263 253 244 244 238 25 180 182 188 199 200 192 191 186 199 228 181 254 257 258 258 260 267 266 247 231 265 297 293 265 272 275
332 327 332 333 333 334 335 335 335 281 272 290 293 265 236 251 196 189 307 193 191 192 200 200 198 214 261 217 156 234 233 251 260 257 254 227 260 270 243 261 267 278 277 271 276
333 333 327 326 325 325 327 329 333 285 244 241 270 274 263 236 204 206 303 206 195 197 192 188 201 245 257 315 302 259 252 268 254 247 239 231 273 241 267 267 268 269 270 267 262
330 329 327 324 322 319 317 320 321 291 257 261 248 260 254 155 179 183 144 157 160 165 172 186 243 261 244 261 329 351 98 278 274 214 233 188 254 253 255 251 252 256 263 263 252
324 324 323 320 321 318 311 309 304 281 259 262 242 250 264 195 213 193 179 172 156 179 211 224 262 194 167 83 360 9 243 260 281 209 233 168 254 256 256 244 242 255 254 255 226
317 318 319 317 319 318 310 303 288 271 245 226 207 289 241 208 211 206 208 203 203 214 238 214 153 75 39 93 210 225 231 271 252 264 190 270 253 245 241 240 242 252 248 224 216
319 316 317 314 316 317 314 306 256 217 215 214 199 231 223 16 224 195 195 210 225 201 169 208 104 210 221 202 206 234 237 251 268 268 211 236 279 253 228 213 226 221 219 209 218
325 320 316 313 316 310 301 265 213 99 280 256 248 256 253 273 292 193 187 197 191 175 154 322 222 224 227 234 229 242 250 265 276 268 192 321 305 299 257 221 210 220 225 231 239
330 324 320 316 316 300 293 295 267 261 276 263 229 229 235 226 220 202 185 199 158 165 182 185 231 206 230 255 249 243 219 233 216 279 214 48 318 320 296 274 237 233 245 242 240
329 324 322 322 323 302 339 15 350 184 9 266 186 230 205 183 232 216 190 192 192 195 212 212 244 238 258 242 257 255 249 228 252 320 270 129 275 273 260 279 262 272 275 270 254
327 325 320 321 300 280 348 9 58 152 335 176 152 182 179 171 163 209 201 192 184 199 132 236 200 141 185 212 56 238 323 284 264 248 85 318 83 270 322 306 290 290 293 290 282
325 322 316 306 284 319 346 71 129 56 255 180 143 163 130 196 212 148 165 204 175 155 233 228 271 212 207 254 234 278 330 21 51 101 359 242 160 286 271 266 305 297 295 299 267
320 322 298 276 194 99 7 72 67 200 291 146 162 149 158 178 223 186 163 142 151 130 233 296 250 247 201 249 311 187 64 342 345 340 218 240 270 222 264 322 292 296 325 10 170
318 321 256 264 184 152 127 63 162 280 272 235 173 150 181 161 219 180 141 167 233 157 115 185 320 202 183 191 206 181 153 157 217 215 247 337 260 230 263 296 338 105 100 106 127
324 319 265 199 182 169 133 120 216 241 300 4 108 169 209 169 163 148 179 191 194 189 169 164 217 345 47 336 118 333 130 192 107 54 96 231 297 318 17 22 34 97 127 144 151
327 321 265 177 165 167 99 238 232 282 356 37 356 8 140 196 81 21 161 46 85 53 139 219 309 345 6 19 19 114 268 1 27 233 254 292 238 217 63 78 46 19 28 38 169
328 320 140 171 163 176 183 230 282 281 101 100 24 44 63 105 128 61 353 37 50 51 73 83 107 290 55 155 230 7 23 30 110 141 199 192 252 214 133 125 136 155 56 357 13
352 296 179 156 120 192 203 238 351 311 278 251 110 68 76 53 75 102 150 69 85 83 78 37 125 249 240 277 53 162 48 88 137 265 211 172 256 211 145 249 260 278 213 190 249
326 278 179 184 180 243 231 345 282 238 329 57 55 77 87 114 95 81 107 177 92 77 135 103 46 35 339 36 21 68 75 130 114 113 214 236 248 197 330 334 276 257 307 303 299
306 315 297 208 251 287 240 201 120 214 245 71 105 79 74 69 44 131 109 62 108 109 122 86 122 157 197 219 74 315 321 292 211 217 222 238 272 290 302 298 289 284 285 279 284
256 267 9 338 314 324 281 188 195 171 54 48 48 53 110 96 57 85 43 22 29 101 59 93 171 336 280 295 330 295 298 289 262 236 227 281 263 269 238 254 270 292 303 28 67
312 357 341 308 325 336 298 198 127 84 67 67 99 95 64 82 39 79 109 126 187 25 74 350 134 113 263 268 282 286 266 261 263 256 264 265 272 276 308 28 68 66 60 50 35
343 294 303 306 331 321 317 301 120 115 53 88 96 92 63 42 4 331 286 227 200 146 125 122 131 107 255 47 344 298 256 249 250 246 249 259 299 331 15 44 79 65 49 37 18
Wind_Speed_850mb
37 41 42 42 39 28 22 15 13 11 10 10 12 13 17 18 24 35 55 52 46 24 22 17 19 20 22 21 26 10 5 8 11 14 12 23 10 32 28 9 17 21 51 41 33
33 36 39 41 41 36 26 21 15 12 11 10 11 13 15 17 26 45 37 35 39 45 43 30 22 23 15 18 14 10 9 16 12 3 5 35 14 24 16 22 14 51 42 32 27
33 32 34 38 40 38 31 24 19 13 10 9 10 11 12 13 19 14 8 30 39 44 31 35 26 11 27 18 15 14 13 9 18 28 23 24 35 16 8 3 9 10 11 15 28
37 34 33 32 36 37 35 27 19 15 9 7 8 8 11 11 8 8 4 9 41 52 35 32 26 11 9 13 28 5 21 30 42 50 41 14 28 6 11 20 12 14 19 5 9
39 37 36 35 33 36 36 33 23 12 10 7 6 7 10 10 19 1 4 13 38 43 41 36 32 19 10 15 24 11 17 40 58 60 48 48 31 22 19 23 23 15 21 25 18
29 37 38 38 37 35 37 38 35 12 8 8 5 7 10 7 12 9 4 16 31 40 38 40 25 23 14 19 16 18 37 45 55 61 46 17 21 21 18 25 38 37 29 28 31
32 32 37 39 41 40 37 38 36 15 11 9 9 11 19 27 14 9 6 11 20 29 37 45 25 17 3 12 19 35 10 16 27 41 19 22 13 13 43 36 41 43 41 39 38
38 36 37 39 42 44 41 35 32 14 14 12 13 14 19 9 22 23 17 15 17 24 32 20 15 34 25 14 14 5 6 5 12 12 22 18 23 16 41 47 48 52 51 48 42
44 44 43 44 43 45 45 38 28 18 16 15 11 11 21 22 33 36 26 21 25 21 20 14 21 7 7 7 10 10 5 10 15 13 6 13 19 25 61 45 43 49 59 60 44
47 48 50 47 49 45 45 38 24 20 15 11 13 11 24 19 35 37 38 30 28 24 33 22 3 5 7 8 10 10 6 11 13 9 8 21 32 37 51 47 53 60 57 48 51
48 50 49 48 48 54 45 26 10 8 25 25 16 21 4 10 14 33 38 40 43 37 11 6 6 12 20 15 13 11 10 17 19 22 8 13 12 25 35 20 28 27 35 47 43
46 46 49 49 49 53 41 20 18 8 18 37 45 48 43 26 9 27 42 27 16 9 9 1 16 19 18 14 15 18 20 22 17 21 14 6 11 12 8 15 33 31 43 50 55
47 46 49 52 52 31 20 24 24 28 9 19 45 49 38 19 14 32 46 41 8 12 12 15 17 21 22 23 19 19 18 12 14 13 5 3 12 8 11 13 26 34 43 49 62
50 46 46 55 20 10 13 30 21 10 5 10 18 16 23 19 10 28 49 43 9 19 12 12 25 23 13 16 17 27 13 14 9 4 11 8 12 9 14 15 12 39 47 56 61
54 47 45 44 34 16 13 20 5 13 2 11 15 12 24 29 7 19 33 27 18 12 13 15 3 5 5 8 2 12 10 8 5 7 3 12 5 14 5 14 18 20 54 59 72
52 44 48 27 24 5 6 11 19 5 10 11 14 13 15 15 4 11 25 20 10 7 3 12 15 7 11 7 6 13 4 9 8 7 1 11 9 9 8 12 16 26 50 44 55
54 48 30 21 8 2 8 7 8 3 10 11 10 13 17 14 12 12 14 12 10 9 9 7 16 10 14 11 4 7 10 6 7 6 10 10 9 14 18 10 6 15 25 4 34
52 35 18 13 17 5 7 8 6 10 11 15 14 24 15 12 9 23 17 10 10 8 5 6 8 4 6 11 14 13 15 10 10 7 8 8 8 9 5 11 17 30 35 43 50
51 27 23 13 32 14 6 3 8 7 8 9 2 13 15 15 10 11 18 22 15 19 13 7 10 5 3 13 2 6 5 11 7 3 4 8 12 8 13 20 19 27 35 30 32
51 32 17 21 34 23 7 8 9 10 6 9 6 12 12 3 9 10 13 5 8 9 9 5 3 3 8 10 5 9 4 2 6 3 8 8 9 9 7 13 20 21 25 28 9
34 19 7 25 36 12 6 9 14 19 2 5 2 6 11 6 8 5 11 10 8 7 14 4 7 8 7 2 2 10 6 7 5 9 8 4 10 9 10 9 12 11 11 14 15
13 5 26 37 8 7 6 5 9 31 17 2 5 10 8 8 7 6 10 3 8 3 6 2 7 3 8 12 3 5 2 7 8 7 4 7 11 14 9 2 6 7 8 10 23
34 14 26 39 3 5 4 6 4 8 9 5 9 10 5 5 8 8 11 4 12 8 8 1 4 5 15 7 11 11 5 5 7 4 11 6 6 3 14 19 23 12 33 31 27
13 6 6 35 11 4 3 6 1 13 12 11 7 10 8 6 8 5 8 4 10 11 14 13 5 11 11 3 2 6 13 7 7 6 5 20 16 22 29 30 23 46 52 45 47
7 5 9 5 4 14 6 6 4 8 7 11 12 15 8 6 4 7 10 10 16 14 10 8 8 2 5 9 7 11 21 24 20 14 17 15 30 16 19 23 43 47 36 15 32
8 7 16 8 21 14 5 3 3 8 5 7 12 11 16 10 6 5 5 3 4 2 6 8 6 5 5 13 16 19 27 29 32 30 30 32 41 25 24 9 30 35 39 37 35
10 8 8 9 7 4 9 5 7 10 19 23 13 12 16 6 9 9 5 7 8 10 5 7 9 5 7 6 12 17 14 13 15 21 17 28 7 7 14 14 18 32 31 30 32
Wind_Direction_850mb
0 3 6 12 12 5 357 350 330 314 296 278 260 253 253 247 243 243 237 233 228 197 185 179 193 197 209 216 210 172 83 233 236 177 270 338 334 315 336 251 124 138 145 142 147
352 356 358 1 8 13 4 358 355 339 318 293 273 260 255 257 258 252 249 235 226 209 214 204 197 181 183 205 199 158 163 227 217 222 313 312 338 320 355 9 71 124 133 141 153
342 348 354 354 357 3 12 359 353 351 335 298 275 266 265 272 286 261 203 218 207 194 193 210 197 175 213 209 203 194 202 226 266 266 270 274 295 276 325 19 36 19 115 141 194
338 340 343 349 349 351 356 4 347 337 331 301 286 281 264 254 213 146 6 209 195 195 195 196 206 193 192 200 217 236 238 240 263 267 271 260 276 244 226 264 269 282 294 274 117
331 335 337 340 342 343 343 344 342 318 312 303 284 263 253 244 244 238 25 180 182 188 199 200 192 191 186 199 228 181 254 257 258 258 260 267 266 247 231 265 297 293 265 272 275
332 327 332 333 333 334 335 335 335 281 272 290 293 265 236 251 196 189 307 193 191 192 200 200 198 214 261 217 156 234 233 251 260 257 254 227 260 270 243 261 267 278 277 271 276
333 333 327 326 325 325 327 329 333 285 244 241 270 274 263 236 204 206 303 206 195 197 192 188 201 245 257 315 302 259 252 268 254 247 239 231 273 241 267 267 268 269 270 267 262
330 329 327 324 322 319 317 320 321 291 257 261 248 260 254 155 179 183 144 157 160 165 172 186 243 261 244 261 329 351 98 278 274 214 233 188 254 253 255 251 252 256 263 263 252
324 324 323 320 321 318 311 309 304 281 259 262 242 250 264 195 213 193 179 172 156 179 211 224 262 194 167 83 360 9 243 260 281 209 233 168 254 256 256 244 242 255 254 255 226
317 318 319 317 319 318 310 303 288 271 245 226 207 289 241 208 211 206 208 203 203 214 238 214 153 75 39 93 210 225 231 271 252 264 190 270 253 245 241 240 242 252 248 224 216
319 316 317 314 316 317 314 306 256 217 215 214 199 231 223 16 224 195 195 210 225 201 169 208 104 210 221 202 206 234 237 251 268 268 211 236 279 253 228 213 226 221 219 209 218
325 320 316 313 316 310 301 265 213 99 280 256 248 256 253 273 292 193 187 197 191 175 154 322 222 224 227 234 229 242 250 265 276 268 192 321 305 299 257 221 210 220 225 231 239
330 324 320 316 316 300 293 295 267 261 276 263 229 229 235 226 220 202 185 199 158 165 182 185 231 206 230 255 249 243 219 233 216 279 214 48 318 320 296 274 237 233 245 242 240
329 324 322 322 323 302 339 15 350 184 9 266 186 230 205 183 232 216 190 192 192 195 212 212 244 238 258 242 257 255 249 228 252 320 270 129 275 273 260 279 262 272 275 270 254
327 325 320 321 300 280 348 9 58 152 335 176 152 182 179 171 163 209 201 192 184 199 132 236 200 141 185 212 56 238 323 284 264 248 85 318 83 270 322 306 290 290 293 290 282
325 322 316 306 284 319 346 71 129 56 255 180 143 163 130 196 212 148 165 204 175 155 233 228 271 212 207 254 234 278 330 21 51 101 359 242 160 286 271 266 305 297 295 299 267
320 322 298 276 194 99 7 72 67 200 291 146 162 149 158 178 223 186 163 142 151 130 233 296 250 247 201 249 311 187 64 342 345 340 218 240 270 222 264 322 292 296 325 10 170
318 321 256 264 184 152 127 63 162 280 272 235 173 150 181 161 219 180 141 167 233 157 115 185 320 202 183 191 206 181 153 157 217 215 247 337 260 230 263 296 338 105 100 106 127
324 319 265 199 182 169 133 120 216 241 300 4 108 169 209 169 163 148 179 191 194 189 169 164 217 345 47 336 118 333 130 192 107 54 96 231 297 318 17 22 34 97 127 144 151
327 321 265 177 165 167 99 238 232 282 356 37 356 8 140 196 81 21 161 46 85 53 139 219 309 345 6 19 19 114 268 1 27 233 254 292 238 217 63 78 46 19 28 38 169
328 320 140 171 163 176 183 230 282 281 101 100 24 44 63 105 128 61 353 37 50 51 73 83 107 290 55 155 230 7 23 30 110 141 199 192 252 214 133 125 136 155 56 357 13
352 296 179 156 120 192 203 238 351 311 278 251 110 68 76 53 75 102 150 69 85 83 78 37 125 249 240 277 53 162 48 88 137 265 211 172 256 211 145 249 260 278 213 190 249
326 278 179 184 180 243 231 345 282 238 329 57 55 77 87 114 95 81 107 177 92 77 135 103 46 35 339 36 21 68 75 130 114 113 214 236 248 197 330 334 276 257 307 303 299
306 315 297 208 251 287 240 201 120 214 245 71 105 79 74 69 44 131 109 62 108 109 122 86 122 157 197 219 74 315 321 292 211 217 222 238 272 290 302 298 289 284 285 279 284
256 267 9 338 314 324 281 188 195 171 54 48 48 53 110 96 57 85 43 22 29 101 59 93 171 336 280 295 330 295 298 289 262 236 227 281 263 269 238 254 270 292 303 28 67
312 357 341 308 325 336 298 198 127 84 67 67 99 95 64 82 39 79 109 126 187 25 74 350 134 113 263 268 282 286 266 261 263 256 264 265 272 276 308 28 68 66 60 50 35
343 294 303 306 331 321 317 301 120 115 53 88 96 92 63 42 4 331 286 227 200 146 125 122 131 107 255 47 344 298 256 249 250 246 249 259 299 331 15 44 79 65 49 37 18